Akron Canton, OH

3:43 PM EDT on July 22, 2017 (GMT -0400)
Akron-Canton Regional

Weather History for KCAK - February, 2013

Change the Weather History Date:

Thursday, February 7, 2013

  Actual Average Record
Temperature  
Mean Temperature 32 °F 28 °F  
Max Temperature 43 °F 35 °F 61 °F (1925)
Min Temperature 20 °F 20 °F -5 °F (1895)
Degree Days  
Heating Degree Days 33 38  
Month to date heating degree days 301 266  
Since 1 July heating degree days 3529 3802  
Cooling Degree Days 0 0  
Month to date cooling degree days 0 0  
Year to date cooling degree days 0 0  
Moisture  
Dew Point 21 °F    
Average Humidity 64    
Maximum Humidity 75    
Minimum Humidity 53    
Precipitation  
Precipitation 0.00 in 0.08 in 0.77 in (2017)
Month to date precipitation 0.27 0.57  
Year to date precipitation 2.43 3.18  
Snow  
Snow 0.00 in 0.30 in - ()
Month to date snowfall 5.0 2.6  
Since 1 July snowfall 30.2 28.6  
Snow Depth 4.00 in    
Sea Level Pressure  
Sea Level Pressure 30.15 in    
Wind  
Wind Speed 9 mph (SE)    
Max Wind Speed 16 mph    
Max Gust Speed 20 mph    
Visibility 8 miles    
Events      
T = Trace of Precipitation, MM = Missing Value Source: NWS Daily Summary

Daily Weather History Graph

Daily Weather History Graph

Search for Another Location

Airport or City:

Trip Planner

Search our weather history database for the weather conditions in past years. The results will help you decide how hot, cold, wet, or windy it might be!

Date:

Astronomy

Feb. 07, 2013 Rise Set
Actual Time 7:29 AM EST 5:50 PM EST
Civil Twilight 7:00 AM EST 6:19 PM EST
Nautical Twilight 6:28 AM EST 6:51 PM EST
Astronomical Twilight 5:56 AM EST 7:24 PM EST
Moon 5:08 AM EST (2/7) 3:13 PM EST (2/7)
Length of Visible Light 11h 18m
Length of Day
10h 21m
Waning Crescent, 9% of the Moon is Illuminated
Feb 7
Waning Crescent
Feb 10
New
Feb 17
First Quarter
Feb 25
Full
Mar 4
Last Quarter

Hourly Weather History & Observations

Time (EST) Temp. Windchill Dew Point Humidity Pressure Visibility Wind Dir Wind Speed Gust Speed Precip Events Conditions
12:51 AM 21.0 °F 11.4 °F 10.9 °F 65% 30.29 in 8.0 mi SSE 8.1 mph - N/A   Clear
1:51 AM 21.0 °F 13.4 °F 10.9 °F 65% 30.29 in 8.0 mi SE 5.8 mph - N/A   Scattered Clouds
2:51 AM 21.0 °F 12.4 °F 10.9 °F 65% 30.30 in 8.0 mi East 6.9 mph - N/A   Partly Cloudy
3:51 AM 23.0 °F 14.7 °F 12.9 °F 65% 30.29 in 8.0 mi ESE 6.9 mph - N/A   Mostly Cloudy
4:51 AM 23.0 °F 14.7 °F 14.0 °F 68% 30.30 in 8.0 mi ESE 6.9 mph - N/A   Overcast
5:51 AM 25.0 °F 17.1 °F 15.1 °F 66% 30.28 in 7.0 mi ESE 6.9 mph - N/A   Overcast
6:51 AM 26.1 °F 17.6 °F 17.1 °F 69% 30.28 in 7.0 mi ESE 8.1 mph - N/A   Overcast
7:51 AM 26.1 °F 19.4 °F 18.0 °F 71% 30.29 in 5.0 mi SE 5.8 mph - N/A   Haze
8:51 AM 27.0 °F 19.5 °F 18.0 °F 69% 30.28 in 5.0 mi ESE 6.9 mph - N/A   Haze
9:51 AM 28.9 °F 21.1 °F 19.9 °F 69% 30.25 in 7.0 mi SE 8.1 mph - N/A   Overcast
10:51 AM 32.0 °F 24.2 °F 21.9 °F 66% 30.23 in 7.0 mi SE 9.2 mph - N/A   Overcast
11:51 AM 35.1 °F 28.6 °F 23.0 °F 61% 30.20 in 7.0 mi ESE 8.1 mph - N/A   Overcast
12:51 PM 37.9 °F 32.1 °F 24.1 °F 57% 30.17 in 8.0 mi SE 8.1 mph - N/A   Mostly Cloudy
1:51 PM 39.9 °F 32.9 °F 25.0 °F 55% 30.12 in 8.0 mi SE 11.5 mph - N/A   Mostly Cloudy
2:51 PM 42.1 °F 35.7 °F 26.1 °F 53% 30.09 in 10.0 mi SE 11.5 mph - N/A   Mostly Cloudy
3:51 PM 43.0 °F 37.7 °F 26.1 °F 51% 30.07 in 7.0 mi SE 9.2 mph - N/A   Scattered Clouds
4:51 PM 43.0 °F 37.7 °F 27.0 °F 53% 30.04 in 7.0 mi ESE 9.2 mph - N/A   Scattered Clouds
5:51 PM 42.1 °F 36.6 °F 27.0 °F 55% 30.02 in 10.0 mi SE 9.2 mph - N/A   Scattered Clouds
6:51 PM 39.9 °F 32.9 °F 27.0 °F 60% 30.03 in 10.0 mi SE 11.5 mph - N/A   Scattered Clouds
7:51 PM 39.0 °F 31.0 °F 27.0 °F 62% 30.00 in 10.0 mi SE 13.8 mph - N/A   Scattered Clouds
8:51 PM 37.9 °F 30.5 °F 27.0 °F 65% 29.97 in 10.0 mi SE 11.5 mph - N/A   Scattered Clouds
9:51 PM 37.0 °F 29.3 °F 27.0 °F 67% 29.96 in 9.0 mi SE 11.5 mph - N/A   Scattered Clouds
10:51 PM 36.0 °F 27.5 °F 28.0 °F 73% 29.93 in 9.0 mi SSE 12.7 mph - N/A   Scattered Clouds
11:51 PM 36.0 °F 27.1 °F 28.0 °F 73% 29.90 in 7.0 mi SSE 13.8 mph - N/A   Scattered Clouds